DW9177 Weather Reports


Display with metric or nautical units.
time (UTC)temp
F
wind
direction
speed
MPH
gust
MPH
rain 1hr
in
rain 24hr
in
rain mn
in
humidity
%
barometer
mb
20260507070036 62 176 0.0 0.0 0.00 0.00 0.00 35 1012.1
20260507064535 63 150 1.0 4.0 0.00 0.00 0.00 34 1012.2
20260507063037 63 140 3.0 5.0 0.00 0.00 0.00 34 1012.1
20260507061534 61 210 0.0 0.0 0.00 0.00 0.00 39 1012.0
20260507060036 61 111 0.0 0.0 0.00 0.00 0.00 41 1012.0
20260507054534 62 110 0.0 0.0 0.00 0.00 0.00 42 1011.8
20260507053030 63 64 0.0 0.0 0.00 0.00 0.00 39 1011.8
20260507051530 64 64 0.0 0.0 0.00 0.00 0.00 36 1011.7
20260507050037 65 333 0.0 0.0 0.00 0.00 0.00 34 1011.5
20260507044530 66 315 0.0 0.0 0.00 0.00 0.00 29 1011.4
20260507043029 68 322 0.0 2.0 0.00 0.00 0.00 28 1011.3
20260507041545 68 53 0.0 0.0 0.00 0.00 0.00 26 1011.3
20260507040027 70 45 0.0 4.0 0.00 0.00 0.00 25 1011.2
20260507034528 71 256 2.0 6.0 0.00 0.00 0.00 24 1011.0
20260507033031 71 265 2.0 5.0 0.00 0.00 0.00 23 1010.8
20260507031526 72 255 2.0 7.0 0.00 0.00 0.00 23 1010.7
20260507030026 72 276 2.0 6.0 0.00 0.00 0.00 23 1010.5
20260507024525 73 265 1.0 7.0 0.00 0.00 0.00 23 1010.4
20260507023025 73 258 1.0 8.0 0.00 0.00 0.00 23 1010.3
20260507021523 74 288 3.0 7.0 0.00 0.00 0.00 23 1010.2
20260507020026 75 271 3.0 6.0 0.00 0.00 0.00 22 1010.1
20260507014534 77 295 2.0 7.0 0.00 0.00 0.00 22 1010.1
20260507013035 78 314 1.0 7.0 0.00 0.00 0.00 22 1010.0
20260507011532 78 318 2.0 7.0 0.00 0.00 0.00 22 1010.0
20260507010020 79 262 2.0 7.0 0.00 0.00 0.00 22 1010.1
20260507004521 79 308 2.0 7.0 0.00 0.00 0.00 21 1010.1
20260507003019 80 293 3.0 6.0 0.00 0.00 0.00 22 1010.0
20260507001517 80 298 3.0 7.0 0.00 0.00 0.00 21 1010.0
20260507000026 80 236 3.0 9.0 0.00 0.00 0.00 22 1009.9
20260506234516 80 330 3.0 8.0 0.00 0.00 0.00 22 1009.9
20260506233017 80 274 3.0 10.0 0.00 0.00 0.00 22 1010.1
20260506231514 80 222 0.0 8.0 0.00 0.00 0.00 22 1010.1
20260506230011 80 257 1.0 5.0 0.00 0.00 0.00 23 1010.2
20260506224509 79 305 3.0 7.0 0.00 0.00 0.00 24 1010.4
20260506223006 79 221 1.0 6.0 0.00 0.00 0.00 25 1010.5
20260506221504 78 357 1.0 9.0 0.00 0.00 0.00 25 1010.5
20260506220003 78 226 2.0 8.0 0.00 0.00 0.00 26 1010.8
20260506214502 80 304 3.0 8.0 0.00 0.00 0.00 25 1010.9
20260506213100 78 313 3.0 7.0 0.00 0.00 0.00 25 1011.1
20260506211557 77 39 1.0 8.0 0.00 0.00 0.00 27 1011.3
20260506204555 79 298 2.0 8.0 0.00 0.00 0.00 27 1011.7
20260506203100 78 262 4.0 7.0 0.00 0.00 0.00 26 1011.8
20260506201551 78 159 1.0 7.0 0.00 0.00 0.00 26 1012.0
20260506200125 77 230 1.0 6.0 0.00 0.00 0.00 27 1012.2
20260506194547 76 266 3.0 11.0 0.00 0.00 0.00 25 1012.4
20260506193046 76 207 1.0 6.0 0.00 0.00 0.00 25 1012.5
20260506191546 75 323 2.0 8.0 0.00 0.00 0.00 25 1012.9
20260506190041 76 262 1.0 4.0 0.00 0.00 0.00 25 1013.0
20260506184537 74 269 1.0 4.0 0.00 0.00 0.00 27 1013.0
20260506183036 73 51 0.0 7.0 0.00 0.00 0.00 31 1013.2
20260506181536 73 308 3.0 8.0 0.00 0.00 0.00 31 1013.4
20260506180039 73 309 2.0 5.0 0.00 0.00 0.00 32 1013.5
20260506174529 72 117 1.0 3.0 0.00 0.00 0.00 34 1013.5
20260506173024 70 98 2.0 6.0 0.00 0.00 0.00 36 1013.5
20260506171538 70 352 1.0 6.0 0.00 0.00 0.00 36 1013.5
20260506170022 69 243 2.0 6.0 0.00 0.00 0.00 38 1013.5
20260506164521 69 214 0.0 3.0 0.00 0.00 0.00 40 1013.5
20260506163021 68 281 0.0 2.0 0.00 0.00 0.00 40 1013.5
20260506161521 67 240 0.0 3.0 0.00 0.00 0.00 42 1013.5
20260506160014 66 269 0.0 2.0 0.00 0.00 0.00 44 1013.5
20260506154510 66 257 0.0 3.0 0.00 0.00 0.00 45 1013.3
20260506153010 65 251 0.0 2.0 0.00 0.00 0.00 48 1013.4
20260506151507 64 255 0.0 0.0 0.00 0.00 0.00 48 1013.4
20260506150007 64 226 0.0 4.0 0.00 0.00 0.00 49 1013.5
20260506144502 63 158 0.0 3.0 0.00 0.00 0.00 51 1013.4
20260506143059 61 153 0.0 4.0 0.00 0.00 0.00 54 1013.5
20260506141557 60 147 2.0 4.0 0.00 0.00 0.00 57 1013.6
20260506140056 60 144 0.0 0.0 0.00 0.00 0.00 60 1013.5
20260506134617 59 227 0.0 0.0 0.00 0.00 0.00 63 1013.4
20260506133055 59 148 0.0 0.0 0.00 0.00 0.00 63 1013.4
20260506131608 56 148 0.0 0.0 0.00 0.00 0.00 70 1013.3
20260506130053 53 148 0.0 0.0 0.00 0.00 0.00 75 1013.2
20260506124552 51 148 0.0 0.0 0.00 0.01 0.00 76 1013.1
20260506123050 51 148 0.0 0.0 0.00 0.01 0.00 75 1013.0
20260506121547 51 148 0.0 0.0 0.00 0.01 0.00 74 1012.8
20260506120044 52 148 0.0 0.0 0.00 0.01 0.00 72 1012.6
20260506114547 52 148 0.0 0.0 0.00 0.03 0.00 70 1012.3
20260506113041 52 150 0.0 1.0 0.00 0.03 0.00 70 1012.2
20260506111537 53 155 0.0 2.0 0.00 0.03 0.00 69 1012.2
20260506110035 53 183 0.0 3.0 0.00 0.03 0.00 69 1012.0
20260506104533 54 135 0.0 0.0 0.00 0.06 0.00 69 1012.0
20260506103033 54 187 1.0 2.0 0.00 0.06 0.00 67 1012.0
20260506101529 55 157 0.0 1.0 0.00 0.06 0.00 66 1011.8
20260506100033 55 215 0.0 0.0 0.00 0.06 0.00 66 1011.8
20260506094527 55 168 1.0 3.0 0.00 0.10 0.00 66 1011.6
20260506093027 56 160 0.0 3.0 0.00 0.10 0.00 67 1011.6
20260506091524 56 182 1.0 3.0 0.00 0.10 0.00 68 1011.4
20260506090021 57 158 1.0 4.0 0.00 0.10 0.00 68 1011.4
20260506084519 57 134 0.0 4.0 0.00 0.15 0.00 67 1011.6
20260506083017 57 163 2.0 5.0 0.00 0.15 0.00 66 1011.5
20260506081519 58 160 0.0 0.0 0.00 0.15 0.00 65 1011.7
20260506073005 60 228 0.0 0.0 0.00 0.22 0.00 61 1011.8
20260506071502 60 239 0.0 0.0 0.00 0.22 0.00 60 1011.8